Home   Weather   Kreuzlingen   Past weeks

Flag for Switzerland Past Weather in Kreuzlingen, Thurgau, Switzerland — Yesterday and Last 2 Weeks

54 °F

Mostly cloudy.

Feels Like: 53 °F
Forecast: 41 / 56 °F
Wind: 5 mph from North

Location: Friedrichshafen Airport

Current Time: Oct 26, 2016 at 1:41:27 PM

Latest Report: Oct 26, 2016 at 12:50 PM

Visibility: N/A

Pressure: 30.33 "Hg

Humidity: 88%

Dew Point: 50 °F

Location of KreuzlingenLocation

Past Weather in Kreuzlingen — Graph


Kreuzlingen Temperature Yesterday

Maximum temperature yesterday: 57 °F (at 12:20 PM)
Minimum temperature yesterday: 45 °F (at 12:20 AM)
Average temperature yesterday: 53 °F

High & Low Weather Summary for the Past Weeks

High61 °F (Oct 15, 4:50 PM)100% (Oct 12, 7:20 AM)30.33 "Hg (Oct 12, 7:20 AM)
Low34 °F (Oct 13, 5:50 AM)50% (Oct 12, 5:20 PM)29.65 "Hg (Oct 14, 4:20 PM)
Average48 °F88%30.04 "Hg
* Reported Oct 11 12:20 PM — Oct 26 12:20 PM, Kreuzlingen, Weather by CustomWeather, © 2016

Note: Actual official high and low records may vary slightly from our data, if they occured in-between our weather recording intervals... More about our weather records


Kreuzlingen Weather History for the Previous 24 Hours

Scroll right to see more
Time TempWeatherWind HumidityBarometerVisibility
12:20 PM
Wed, Oct 26
52 °FSprinkles. Mostly cloudy.3 mph94%30.33 "Hg6 mi
11:50 AM52 °FLight rain. Mostly cloudy.3 mph94%30.33 "Hg6 mi
10:50 AM52 °FMostly cloudy.3 mph94%30.33 "Hg6 mi
10:20 AM52 °FDrizzle. Mostly cloudy.3 mph88%30.33 "Hg5 mi
9:50 AM50 °FDrizzle. Cloudy.3 mph94%30.30 "Hg6 mi
9:20 AM52 °FLight rain. Mostly cloudy.3 mph88%30.30 "Hg6 mi
8:50 AM50 °FMore clouds than sun.3 mph100%30.30 "Hg4 mi
8:20 AM50 °FOvercast.5 mph100%30.27 "Hg4 mi
7:50 AM50 °FMostly cloudy.3 mph100%30.27 "Hg4 mi
7:20 AM50 °FMostly cloudy.5 mph100%30.27 "Hg4 mi
6:50 AM50 °FOvercast.5 mph100%30.27 "Hg4 mi
6:20 AM52 °FMostly cloudy.3 mph94%30.27 "Hg4 mi
5:50 AM52 °FMostly cloudy.7 mph94%30.27 "Hg5 mi
5:20 AM52 °FOvercast.6 mph94%30.27 "Hg5 mi
4:50 AM52 °FOvercast.5 mph94%30.27 "Hg4 mi
4:20 AM52 °FOvercast.6 mph94%30.27 "Hg5 mi
3:50 AM52 °FOvercast.2 mph100%30.27 "Hg4 mi
3:20 AM54 °FMostly cloudy.5 mph94%30.27 "Hg4 mi
2:50 AM54 °FMostly cloudy.3 mph94%30.27 "Hg4 mi
2:20 AM54 °FOvercast.3 mph94%30.27 "Hg4 mi
1:50 AM54 °FOvercast.3 mph94%30.27 "Hg4 mi
1:20 AM54 °FOvercast.3 mph94%30.27 "Hg4 mi
12:50 AM54 °FMostly cloudy.3 mph94%30.27 "Hg4 mi
12:20 AM54 °FMostly cloudy.5 mph94%30.27 "Hg5 mi
11:50 PM
Tue, Oct 25
54 °FMostly cloudy.5 mph94%30.27 "Hg4 mi
11:20 PM54 °FSprinkles. Fog.6 mph94%30.27 "Hg2 mi
10:50 PM54 °FSprinkles. Mostly cloudy.7 mph94%30.27 "Hg5 mi
10:20 PM54 °FSprinkles. Low clouds.5 mph100%30.27 "Hg4 mi
9:20 PM55 °FSprinkles. Mostly cloudy.3 mph94%30.24 "Hg4 mi
8:50 PM55 °FMostly cloudy.2 mph94%30.24 "Hg4 mi
8:20 PM55 °FMostly cloudy.1 mph94%30.24 "Hg4 mi
7:50 PM55 °FFog.2 mph94%30.21 "Hg2 mi
7:20 PM55 °FSprinkles. Mostly cloudy.2 mph94%30.21 "Hg3 mi
6:50 PM55 °FLow clouds.2 mph94%30.21 "Hg3 mi
6:20 PM55 °FMostly cloudy.1 mph94%30.21 "HgN/A
5:50 PM55 °FLight rain. More clouds than sun.5 mph94%30.21 "HgN/A
5:20 PM55 °FLight rain. Mostly cloudy.5 mph100%30.21 "Hg5 mi
4:50 PM57 °FLight rain. Mostly cloudy.2 mph94%30.21 "HgN/A
4:20 PM57 °FLight rain. Mostly cloudy.2 mph94%30.18 "HgN/A
3:50 PM57 °FLight rain. More clouds than sun.2 mph94%30.18 "HgN/A
3:20 PM57 °FLight rain. More clouds than sun.3 mph94%30.18 "HgN/A
2:50 PM57 °FLight rain. More clouds than sun.2 mph94%30.18 "HgN/A
2:20 PM57 °FLight rain. Low clouds.2 mph94%30.18 "HgN/A
1:50 PM57 °FLight rain. Clear.No wind94%30.18 "Hg6 mi
1:20 PM57 °FLight rain. Clear.1 mph94%30.18 "HgN/A
Weather by CustomWeather, © 2016

See weather overviewHow to use our weather pages